User: anonymous   Login
Location: Unspecified
(0.0000°N, 0.0000°E)
Time: 00:26:41
(UTC+02:00)
Language:

Cosmos 2219 - Orbit

View from above orbital plane
View from above orbital plane
View from above satellite
View from above satellite

Ground track
Ground track

The orbit data is extracted from the following two-line orbital elements,

1 22219U 92076A   15213.36389075 -.00000278  00000-0 -12238-3 0  9991
2 22219 071.0583 190.2563 0018712 347.6819 012.3843 14.13560185171290
Epoch (UTC): 01 August 2015 08:44:00
Eccentricity: 0.0018712
inclination: 71.0583°
perigee height: 833 km
apogee height: 861 km
right ascension of ascending node: 190.2563°
argument of perigee: 347.6819°
revolutions per day: 14.13560185
mean anomaly at epoch: 12.3843°
orbit number at epoch: 17129

The dashed part of the orbit path shows where the satellite is in the earth's shadow,  

DLR